This is the latest recevied weather packets stored in our database for station/object KM4KBD. If no packets are shown the sender has not sent any weather packets the latest 10 day(s).
| Time | Temp. | Humidity | Pressure | Rain* | Wind** | Luminosity | Snow |
|---|---|---|---|---|---|---|---|
| 1778090024 | 15.56° C | 78% | 1018.7 hPa | 0 mm | - | 185 W/m² | - |
| 1778089721 | 15.56° C | 79% | 1018.7 hPa | 0 mm | - | 225 W/m² | - |
| 1778089419 | 15° C | 81% | 1018.6 hPa | 0 mm | - | 281 W/m² | - |
| 1778089117 | 14.44° C | 82% | 1018.9 hPa | 0 mm | - | 350 W/m² | - |
| 1778088813 | 14.44° C | 83% | 1018.7 hPa | 0 mm | - | 387 W/m² | - |
| 1778088510 | 14.44° C | 81% | 1018.5 hPa | 0 mm | - | 378 W/m² | - |
| 1778088207 | 14.44° C | 84% | 1018.7 hPa | 0 mm | - | 396 W/m² | - |
| 1778087904 | 13.89° C | 84% | 1018.9 hPa | 0 mm | - | 285 W/m² | - |
| 1778087601 | 13.33° C | 87% | 1019 hPa | 0 mm | - | 317 W/m² | - |
| 1778087299 | 13.89° C | 85% | 1019 hPa | 0 mm | - | 235 W/m² | - |
| 1778086995 | 13.33° C | 85% | 1019 hPa | 0 mm | - | 307 W/m² | - |
| 1778086694 | 13.89° C | 87% | 1018.8 hPa | 0 mm | - | 327 W/m² | - |
| 1778086391 | 13.33° C | 86% | 1018.7 hPa | 0 mm | - | 393 W/m² | - |
| 1778086088 | 12.78° C | 88% | 1018.5 hPa | 0 mm | - | 334 W/m² | - |
| 1778085784 | 12.22° C | 90% | 1018.8 hPa | 0 mm | - | 236 W/m² | - |
| 1778085481 | 12.22° C | 89% | 1018.9 hPa | 0 mm | - | 230 W/m² | - |
| 1778085176 | 12.22° C | 91% | 1018.9 hPa | 0 mm | - | 261 W/m² | - |
| 1778084872 | 12.22° C | 92% | 1019 hPa | 0 mm | - | 226 W/m² | - |
| 1778084570 | 12.22° C | 91% | 1018.7 hPa | 0 mm | - | 292 W/m² | - |
| 1778084267 | 12.22° C | 91% | 1018.8 hPa | 0 mm | - | 196 W/m² | - |
| 1778083964 | 12.22° C | 92% | 1019 hPa | 0 mm | - | 203 W/m² | - |
| 1778083662 | 11.11° C | 94% | 1018.9 hPa | 0 mm | - | 274 W/m² | - |
| 1778083358 | 11.11° C | 95% | 1018.6 hPa | 0 mm | - | 210 W/m² | - |
| 1778083057 | 11.11° C | 95% | 1018.8 hPa | 0 mm | - | 213 W/m² | - |
| 1778082753 | 11.11° C | 96% | 1019.1 hPa | 0 mm | - | 196 W/m² | - |
* Rain latest hour (hover to see other rain measurements)
** Current wind speed in m/s (hover to see current wind gust speed)